This demonstration page uses our WeatherBlox Daily Observations layout. Learn more.

Left ArrowRight Arrow

53.62937, 11.41316

Hourly Observations for May 28, 2016

Temp ( °F °C ) Dew Point ( °F °C ) Humidity (%) Winds ( mph kmh ) Pressure ( in mb ) Visibility ( mi km ) Precip ( " mm )
6:20 am 06:20 Mostly Sunny 46 8 46 8 100 100 ENE 2 4 30.03 1017 7 11 N/A
6:50 am 06:50 Mostly Sunny 52 11 50 10 94 94 E 3 6 30.03 1017 7 11 N/A
7:20 am 07:20 Mostly Sunny 55 13 52 11 88 88 VRB 2 4 30.03 1017 7 11 N/A
7:50 am 07:50 Mostly Sunny 57 14 50 10 77 77 ENE 9 15 30.03 1017 7 11 N/A
8:20 am 08:20 Mostly Sunny 59 15 50 10 72 72 ENE 10 17 30.03 1017 7 11 N/A
8:50 am 08:50 Mostly Sunny 61 16 48 9 63 63 ENE 10 17 30.03 1017 7 11 N/A
9:20 am 09:20 Mostly Sunny 61 16 48 9 63 63 ENE 9 15 30.03 1017 7 11 N/A
9:50 am 09:50 Mostly Sunny 63 17 48 9 59 59 ENE 9 15 30.00 1016 7 11 N/A
10:20 am 10:20 Mostly Sunny 64 18 50 10 60 60 ENE 9 15 30.00 1016 7 11 N/A
10:50 am 10:50 Mostly Sunny 66 19 50 10 56 56 E 7 11 30.00 1016 7 11 N/A
11:20 am 11:20 Mostly Sunny 66 19 50 10 56 56 E 8 13 30.00 1016 7 11 N/A
11:50 am 11:50 Mostly Sunny 68 20 52 11 56 56 ENE 7 11 30.00 1016 7 11 N/A
12:20 pm 12:20 Mostly Sunny 68 20 52 11 56 56 ENE 9 15 29.97 1015 7 11 N/A
12:50 pm 12:50 Mostly Sunny 68 20 52 11 56 56 E 8 13 30.00 1016 7 11 N/A
1:20 pm 13:20 Mostly Sunny 70 21 52 11 53 53 E 7 11 29.97 1015 7 11 N/A
1:50 pm 13:50 Partly Cloudy 70 21 50 10 50 50 E 9 15 29.97 1015 30 48 N/A
2:20 pm 14:20 Partly Cloudy 72 22 52 11 50 50 ENE 7 11 29.97 1015 30 48 N/A
2:50 pm 14:50 Partly Cloudy 70 21 52 11 53 53 ENE 7 11 29.97 1015 30 48 N/A
3:20 pm 15:20 Partly Cloudy 72 22 54 12 53 53 E 9 15 29.97 1015 30 48 N/A
3:50 pm 15:50 Partly Cloudy 70 21 54 12 57 57 N 9 15 29.97 1015 30 48 N/A
4:20 pm 16:20 Partly Cloudy 70 21 54 12 57 57 NE 10 17 29.97 1015 30 48 N/A
4:50 pm 16:50 Mostly Sunny 70 21 55 13 60 60 ENE 12 19 29.94 1014 30 48 N/A
5:20 pm 17:20 Partly Cloudy 70 21 55 13 60 60 NE 9 15 29.94 1014 30 48 N/A
5:50 pm 17:50 Partly Cloudy 72 22 54 12 53 53 ENE 9 15 29.94 1014 30 48 N/A
6:20 pm 18:20 Mostly Sunny 72 22 54 12 53 53 ENE 9 15 29.94 1014 30 48 N/A
6:50 pm 18:50 Partly Cloudy 70 21 55 13 60 60 ENE 12 19 29.94 1014 30 48 N/A

Powered by AerisWeather